Home   Weather   Amman   Past weeks

Flag for Jordan Past Weather in Amman, Jordan — Yesterday and Last 2 Weeks

Now
70 °F

Fog.


Feels Like: 70 °F
Forecast: 68 / 86 °F
Wind: 9 mph from Northwest

Location: Amman Airport

Current Time: Aug 31, 2016 at 5:32:36 AM

Latest Report: Aug 31, 2016 at 5:00 AM


Visibility: 2 mi

Pressure: 29.92 "Hg (27.21 "Hg at 816m altitude)

Humidity: 83%

Dew Point: 64 °F

Location of AmmanLocation

Past Weather in Amman — Graph

°F

Amman Temperature Yesterday

Maximum temperature yesterday: 90 °F (at 1:00 PM)
Minimum temperature yesterday: 70 °F (at 5:00 AM)
Average temperature yesterday: 80 °F

High & Low Weather Summary for the Past Weeks

 TemperatureHumidityPressure
High97 °F (Aug 20, 3:00 PM)88% (Aug 28, 6:00 AM)30.01 "Hg (Aug 28, 6:00 AM)
Low66 °F (Aug 17, 5:00 AM)12% (Aug 27, 1:00 PM)29.83 "Hg (Aug 17, 2:00 PM)
Average81 °F47%29.91 "Hg
* Reported Aug 16 5:00 AM — Aug 31 3:00 AM, Amman, Weather by CustomWeather, © 2016

Note: Actual official high and low records may vary slightly from our data, if they occured in-between our weather recording intervals... More about our weather records

Advertising

Amman Weather History for the Previous 24 Hours

Scroll right to see more
 ConditionsComfort  
Time TempWeatherWind HumidityBarometerVisibility
3:00 AM
Wed, Aug 31
70 °FFog.6 mph88%29.92 "Hg2 mi
2:00 AM72 °FClear.10 mph83%29.92 "Hg4 mi
1:00 AM75 °FClear.7 mph74%29.92 "Hg4 mi
12:00 AM75 °FClear.8 mph74%29.92 "Hg4 mi
11:00 PM
Tue, Aug 30
75 °FClear.9 mph74%29.92 "Hg4 mi
10:00 PM79 °FClear.3 mph65%29.92 "Hg4 mi
9:00 PM81 °FClear.7 mph62%29.92 "Hg4 mi
8:00 PM81 °FClear.8 mph62%29.92 "Hg4 mi
7:00 PM81 °FHaze.7 mph62%29.89 "Hg2 mi
6:00 PM84 °FHaze.12 mph55%29.89 "Hg2 mi
5:00 PM86 °FHaze.15 mph52%29.89 "Hg3 mi
4:00 PM90 °FHaze.12 mph46%29.89 "Hg3 mi
3:00 PM88 °FHaze.6 mph49%29.92 "Hg3 mi
2:00 PM90 °FHaze.8 mph46%29.92 "Hg3 mi
1:00 PM90 °FHaze.9 mph46%29.92 "Hg3 mi
12:00 PM86 °FHaze.6 mph49%29.95 "Hg3 mi
11:00 AM82 °FHaze.5 mph62%29.95 "Hg3 mi
10:00 AM79 °FHaze.6 mph61%29.95 "Hg3 mi
9:00 AM77 °FHaze.6 mph69%29.95 "Hg3 mi
8:00 AM73 °FHaze.7 mph74%29.92 "Hg2 mi
7:00 AM72 °FHaze.5 mph78%29.92 "Hg2 mi
6:00 AM72 °FHaze.No wind78%29.92 "Hg3 mi
5:00 AM70 °FHaze.6 mph83%29.95 "Hg3 mi
Weather by CustomWeather, © 2016

See weather overviewHow to use our weather pages